Time,TemperatureF,DewpointF,PressureIn,WindDirection,WindDirectionDegrees,WindSpeedMPH,WindSpeedGustMPH,Humidity,HourlyPrecipIn,Conditions,Clouds,dailyrainin,SolarRadiationWatts/m^2,SoftwareType,DateUTC
2013-01-23 00:00:00,12.1,0.6,29.79,North,11,0.0,1.0,59,0.00,,,0.01,0,WeatherCatV1.12B45,2013-01-23 05:00:00,
2013-01-23 00:01:00,12.1,0.6,29.79,North,350,0.0,1.0,59,0.00,,,0.00,0,WeatherCatV1.12B45,2013-01-23 05:01:00,
2013-01-23 00:06:00,12.0,0.5,29.79,NW,322,0.0,3.0,59,0.00,,,0.00,0,WeatherCatV1.12B45,2013-01-23 05:06:00,
2013-01-23 00:11:00,11.9,0.0,29.78,NW,307,0.0,1.0,58,0.00,,,0.00,0,WeatherCatV1.12B45,2013-01-23 05:11:00,
2013-01-23 00:16:00,11.8,-0.1,29.78,WNW,286,0.0,1.0,58,0.00,,,0.00,0,WeatherCatV1.12B45,2013-01-23 05:16:00,
2013-01-23 00:21:00,11.7,-0.2,29.78,NW,304,0.0,1.0,58,0.00,,,0.00,0,WeatherCatV1.12B45,2013-01-23 05:21:00,
2013-01-23 00:26:00,11.7,0.2,29.78,NW,304,0.0,1.0,59,0.00,,,0.00,0,WeatherCatV1.12B45,2013-01-23 05:26:00,
2013-01-23 00:31:00,11.6,-0.3,29.78,NNW,330,0.0,3.0,58,0.00,,,0.00,0,WeatherCatV1.12B45,2013-01-23 05:31:00,
2013-01-23 00:36:00,11.5,-0.4,29.78,SSE,167,0.0,1.0,58,0.00,,,0.00,0,WeatherCatV1.12B45,2013-01-23 05:36:00,
2013-01-23 00:41:00,11.4,-0.8,29.78,NNW,340,0.0,1.0,57,0.00,,,0.00,0,WeatherCatV1.12B45,2013-01-23 05:41:00,
2013-01-23 00:46:00,11.3,-0.9,29.78,NW,322,0.0,4.0,57,0.00,,,0.00,0,WeatherCatV1.12B45,2013-01-23 05:46:00,
2013-01-23 00:51:00,11.3,-0.9,29.78,NW,315,0.0,3.0,57,0.00,,,0.00,0,WeatherCatV1.12B45,2013-01-23 05:51:00,
2013-01-23 00:56:00,11.2,-1.0,29.78,WNW,296,0.0,1.0,57,0.00,,,0.00,0,WeatherCatV1.12B45,2013-01-23 05:56:00,
2013-01-23 01:01:00,11.2,-1.0,29.78,WNW,283,0.0,2.0,57,0.00,,,0.00,0,WeatherCatV1.12B45,2013-01-23 06:01:00,
2013-01-23 01:06:00,11.1,-1.1,29.78,NW,317,0.0,0.0,57,0.00,,,0.00,0,WeatherCatV1.12B45,2013-01-23 06:06:00,
2013-01-23 01:11:00,11.0,-1.6,29.78,WNW,295,0.0,1.0,56,0.00,,,0.00,0,WeatherCatV1.12B45,2013-01-23 06:11:00,
2013-01-23 01:16:00,10.9,-1.7,29.78,NNW,337,0.0,2.0,56,0.00,,,0.00,0,WeatherCatV1.12B45,2013-01-23 06:16:00,
2013-01-23 01:21:00,10.9,-1.7,29.78,NNW,331,1.0,1.0,56,0.00,,,0.00,0,WeatherCatV1.12B45,2013-01-23 06:21:00,
2013-01-23 01:26:00,10.8,-1.8,29.78,NNW,331,0.0,1.0,56,0.00,,,0.00,0,WeatherCatV1.12B45,2013-01-23 06:26:00,
2013-01-23 01:31:00,10.8,-2.2,29.78,NNE,14,1.0,1.0,55,0.00,,,0.00,0,WeatherCatV1.12B45,2013-01-23 06:31:00,
2013-01-23 01:36:00,10.7,-2.2,29.78,NNW,346,0.0,2.0,55,0.00,,,0.00,0,WeatherCatV1.12B45,2013-01-23 06:36:00,
2013-01-23 01:41:00,10.7,-2.2,29.79,NNW,340,0.0,1.0,55,0.00,,,0.00,0,WeatherCatV1.12B45,2013-01-23 06:41:00,
2013-01-23 01:46:00,10.6,-2.3,29.79,NNW,328,0.0,5.0,55,0.00,,,0.00,0,WeatherCatV1.12B45,2013-01-23 06:46:00,
2013-01-23 01:51:00,10.6,-2.3,29.79,NNW,327,0.0,1.0,55,0.00,,,0.00,0,WeatherCatV1.12B45,2013-01-23 06:51:00,
2013-01-23 01:56:00,10.5,-2.4,29.79,NNW,327,0.0,2.0,55,0.00,,,0.00,0,WeatherCatV1.12B45,2013-01-23 06:56:00,
2013-01-23 02:01:00,10.5,-2.4,29.79,NNW,328,0.0,1.0,55,0.00,,,0.00,0,WeatherCatV1.12B45,2013-01-23 07:01:00,
2013-01-23 02:06:00,10.4,-2.5,29.79,NNW,328,0.0,0.0,55,0.00,,,0.00,0,WeatherCatV1.12B45,2013-01-23 07:06:00,
2013-01-23 02:11:00,10.3,-2.6,29.80,NNW,327,0.0,2.0,55,0.00,,,0.00,0,WeatherCatV1.12B45,2013-01-23 07:11:00,
2013-01-23 02:16:00,10.3,-2.6,29.80,NNW,327,0.0,1.0,55,0.00,,,0.00,0,WeatherCatV1.12B45,2013-01-23 07:16:00,
2013-01-23 02:21:00,10.3,-2.6,29.80,NNW,328,0.0,0.0,55,0.00,,,0.00,0,WeatherCatV1.12B45,2013-01-23 07:21:00,
2013-01-23 02:26:00,10.3,-2.6,29.80,NW,326,0.0,2.0,55,0.00,,,0.00,0,WeatherCatV1.12B45,2013-01-23 07:26:00,
2013-01-23 02:31:00,10.2,-2.7,29.80,NW,326,0.0,0.0,55,0.00,,,0.00,0,WeatherCatV1.12B45,2013-01-23 07:31:00,
2013-01-23 02:36:00,10.1,-2.8,29.80,NW,325,0.0,1.0,55,0.00,,,0.00,0,WeatherCatV1.12B45,2013-01-23 07:36:00,
2013-01-23 02:41:00,10.1,-2.4,29.80,NW,319,0.0,2.0,56,0.00,,,0.00,0,WeatherCatV1.12B45,2013-01-23 07:41:00,
2013-01-23 02:46:00,10.1,-2.4,29.80,NW,314,0.0,1.0,56,0.00,,,0.00,0,WeatherCatV1.12B45,2013-01-23 07:46:00,
2013-01-23 02:51:00,10.0,-2.5,29.80,NW,311,0.0,1.0,56,0.00,,,0.00,0,WeatherCatV1.12B45,2013-01-23 07:51:00,
2013-01-23 02:56:00,9.9,-2.2,29.80,NW,311,0.0,1.0,57,0.00,,,0.00,0,WeatherCatV1.12B45,2013-01-23 07:56:00,
2013-01-23 03:01:00,9.9,-2.2,29.80,NW,311,0.0,2.0,57,0.00,,,0.00,0,WeatherCatV1.12B45,2013-01-23 08:01:00,
2013-01-23 03:06:00,9.9,-2.2,29.80,NW,313,1.0,1.0,57,0.00,,,0.00,0,WeatherCatV1.12B45,2013-01-23 08:06:00,
2013-01-23 03:11:00,9.9,-1.9,29.80,NW,313,0.0,1.0,58,0.00,,,0.00,0,WeatherCatV1.12B45,2013-01-23 08:11:00,
2013-01-23 03:16:00,9.9,-1.9,29.80,WNW,295,0.0,2.0,58,0.00,,,0.00,0,WeatherCatV1.12B45,2013-01-23 08:16:00,
2013-01-23 03:21:00,9.9,-1.9,29.80,WNW,300,0.0,2.0,58,0.00,,,0.00,0,WeatherCatV1.12B45,2013-01-23 08:21:00,
2013-01-23 03:26:00,9.9,-1.5,29.80,NW,304,1.0,3.0,59,0.00,,,0.00,0,WeatherCatV1.12B45,2013-01-23 08:26:00,
2013-01-23 03:31:00,9.8,-1.3,29.80,North,355,0.0,1.0,60,0.00,,,0.00,0,WeatherCatV1.12B45,2013-01-23 08:31:00,
2013-01-23 03:36:00,9.8,-0.6,29.80,NW,314,1.0,3.0,62,0.00,,,0.00,0,WeatherCatV1.12B45,2013-01-23 08:36:00,
2013-01-23 03:41:00,9.7,-0.7,29.80,NNW,339,0.0,1.0,62,0.00,,,0.00,0,WeatherCatV1.12B45,2013-01-23 08:41:00,
2013-01-23 03:46:00,9.7,-0.3,29.80,NW,317,0.0,0.0,63,0.00,,,0.00,0,WeatherCatV1.12B45,2013-01-23 08:46:00,
2013-01-23 03:51:00,9.6,-0.4,29.80,NW,317,0.0,0.0,63,0.00,,,0.00,0,WeatherCatV1.12B45,2013-01-23 08:51:00,
2013-01-23 03:56:00,9.6,-0.4,29.80,NW,314,0.0,0.0,63,0.00,,,0.00,0,WeatherCatV1.12B45,2013-01-23 08:56:00,
2013-01-23 04:01:00,9.5,-0.2,29.80,NW,309,0.0,3.0,64,0.00,,,0.00,0,WeatherCatV1.12B45,2013-01-23 09:01:00,
2013-01-23 04:06:00,9.5,-0.5,29.80,NNW,334,1.0,2.0,63,0.00,,,0.00,0,WeatherCatV1.12B45,2013-01-23 09:06:00,
2013-01-23 04:11:00,9.4,-0.6,29.80,NW,325,0.0,1.0,63,0.00,,,0.00,0,WeatherCatV1.12B45,2013-01-23 09:11:00,
2013-01-23 04:16:00,9.4,-0.6,29.80,NNW,330,1.0,1.0,63,0.00,,,0.00,0,WeatherCatV1.12B45,2013-01-23 09:16:00,
2013-01-23 04:21:00,9.4,-0.3,29.80,NNW,333,0.0,2.0,64,0.00,,,0.00,0,WeatherCatV1.12B45,2013-01-23 09:21:00,
2013-01-23 04:26:00,9.3,-0.7,29.81,NNW,333,0.0,1.0,63,0.00,,,0.00,0,WeatherCatV1.12B45,2013-01-23 09:26:00,
2013-01-23 04:31:00,9.3,-0.7,29.81,NNW,344,0.0,1.0,63,0.00,,,0.00,0,WeatherCatV1.12B45,2013-01-23 09:31:00,
2013-01-23 04:36:00,9.3,-0.7,29.81,NNW,339,0.0,2.0,63,0.00,,,0.00,0,WeatherCatV1.12B45,2013-01-23 09:36:00,
2013-01-23 04:41:00,9.2,-1.1,29.81,WSW,240,0.0,7.0,62,0.00,,,0.00,0,WeatherCatV1.12B45,2013-01-23 09:41:00,
2013-01-23 04:46:00,9.2,-1.5,29.81,NNW,331,0.0,10.0,61,0.00,,,0.00,0,WeatherCatV1.12B45,2013-01-23 09:46:00,
2013-01-23 04:51:00,9.2,-1.8,29.81,West,269,1.0,4.0,60,0.00,,,0.00,0,WeatherCatV1.12B45,2013-01-23 09:51:00,
2013-01-23 04:56:00,9.2,-2.2,29.81,NW,311,0.0,3.0,59,0.00,,,0.00,0,WeatherCatV1.12B45,2013-01-23 09:56:00,
2013-01-23 05:01:00,9.2,-2.2,29.81,NW,306,0.0,3.0,59,0.00,,,0.00,0,WeatherCatV1.12B45,2013-01-23 10:01:00,
2013-01-23 05:06:00,9.1,-2.6,29.81,NW,325,0.0,2.0,58,0.00,,,0.00,0,WeatherCatV1.12B45,2013-01-23 10:06:00,
2013-01-23 05:11:00,9.1,-3.0,29.81,WNW,294,0.0,0.0,57,0.00,,,0.00,0,WeatherCatV1.12B45,2013-01-23 10:11:00,
2013-01-23 05:16:00,9.1,-3.0,29.81,North,355,0.0,2.0,57,0.00,,,0.00,0,WeatherCatV1.12B45,2013-01-23 10:16:00,
2013-01-23 05:21:00,9.0,-3.1,29.81,NW,310,0.0,1.0,57,0.00,,,0.00,0,WeatherCatV1.12B45,2013-01-23 10:21:00,
2013-01-23 05:26:00,8.9,-3.6,29.81,NW,318,0.0,4.0,56,0.00,,,0.00,0,WeatherCatV1.12B45,2013-01-23 10:26:00,
2013-01-23 05:31:00,8.9,-3.9,29.81,WNW,288,0.0,3.0,55,0.00,,,0.00,0,WeatherCatV1.12B45,2013-01-23 10:31:00,
2013-01-23 05:36:00,8.9,-3.9,29.81,NNW,338,1.0,7.0,55,0.00,,,0.00,0,WeatherCatV1.12B45,2013-01-23 10:36:00,
2013-01-23 05:41:00,8.8,-4.4,29.81,NW,317,0.0,2.0,54,0.00,,,0.00,0,WeatherCatV1.12B45,2013-01-23 10:41:00,
2013-01-23 05:46:00,8.8,-4.4,29.81,North,351,0.0,2.0,54,0.00,,,0.00,0,WeatherCatV1.12B45,2013-01-23 10:46:00,
2013-01-23 05:51:00,8.7,-4.5,29.81,WSW,257,2.0,5.0,54,0.00,,,0.00,0,WeatherCatV1.12B45,2013-01-23 10:51:00,
2013-01-23 05:56:00,8.7,-4.9,29.81,ESE,109,0.0,1.0,53,0.00,,,0.00,0,WeatherCatV1.12B45,2013-01-23 10:56:00,
2013-01-23 06:01:00,8.7,-4.9,29.81,NW,319,3.0,3.0,53,0.00,,,0.00,0,WeatherCatV1.12B45,2013-01-23 11:01:00,
2013-01-23 06:06:00,8.7,-4.9,29.82,SW,224,0.0,3.0,53,0.00,,,0.00,0,WeatherCatV1.12B45,2013-01-23 11:06:00,
2013-01-23 06:11:00,8.7,-4.5,29.82,WNW,300,1.0,2.0,54,0.00,,,0.00,0,WeatherCatV1.12B45,2013-01-23 11:11:00,
2013-01-23 06:16:00,8.7,-4.5,29.82,NNW,334,1.0,1.0,54,0.00,,,0.00,0,WeatherCatV1.12B45,2013-01-23 11:16:00,
2013-01-23 06:21:00,8.6,-4.6,29.82,NW,310,0.0,2.0,54,0.00,,,0.00,0,WeatherCatV1.12B45,2013-01-23 11:21:00,
2013-01-23 06:26:00,8.6,-4.6,29.83,West,275,0.0,2.0,54,0.00,,,0.00,0,WeatherCatV1.12B45,2013-01-23 11:26:00,
2013-01-23 06:31:00,8.5,-5.1,29.83,NNW,333,3.0,3.0,53,0.00,,,0.00,0,WeatherCatV1.12B45,2013-01-23 11:31:00,
2013-01-23 06:36:00,8.4,-5.6,29.83,NW,318,0.0,1.0,52,0.00,,,0.00,0,WeatherCatV1.12B45,2013-01-23 11:36:00,
2013-01-23 06:41:00,8.3,-5.7,29.83,SSW,196,1.0,1.0,52,0.00,,,0.00,0,WeatherCatV1.12B45,2013-01-23 11:41:00,
2013-01-23 06:46:00,8.3,-5.7,29.83,NW,325,0.0,3.0,52,0.00,,,0.00,0,WeatherCatV1.12B45,2013-01-23 11:46:00,
2013-01-23 06:51:00,8.2,-5.7,29.83,WNW,296,0.0,2.0,52,0.00,,,0.00,0,WeatherCatV1.12B45,2013-01-23 11:51:00,
2013-01-23 06:56:00,8.2,-5.7,29.83,NNW,327,1.0,1.0,52,0.00,,,0.00,0,WeatherCatV1.12B45,2013-01-23 11:56:00,
2013-01-23 07:01:00,8.1,-5.8,29.83,NW,317,0.0,1.0,52,0.00,,,0.00,0,WeatherCatV1.12B45,2013-01-23 12:01:00,
2013-01-23 07:06:00,8.1,-5.8,29.83,NW,310,4.0,4.0,52,0.00,,,0.00,0,WeatherCatV1.12B45,2013-01-23 12:06:00,
2013-01-23 07:11:00,8.0,-5.9,29.83,NW,307,1.0,1.0,52,0.00,,,0.00,0,WeatherCatV1.12B45,2013-01-23 12:11:00,
2013-01-23 07:16:00,7.9,-5.6,29.83,SW,234,0.0,2.0,53,0.00,,,0.00,5,WeatherCatV1.12B45,2013-01-23 12:16:00,
2013-01-23 07:21:00,7.9,-6.0,29.83,WNW,303,0.0,1.0,52,0.00,,,0.00,7,WeatherCatV1.12B45,2013-01-23 12:21:00,
2013-01-23 07:26:00,7.8,-6.1,29.83,NW,309,0.0,5.0,52,0.00,,,0.00,9,WeatherCatV1.12B45,2013-01-23 12:26:00,
2013-01-23 07:31:00,7.8,-5.7,29.84,West,263,1.0,1.0,53,0.00,,,0.00,14,WeatherCatV1.12B45,2013-01-23 12:31:00,
2013-01-23 07:36:00,7.8,-6.1,29.84,NNW,329,0.0,3.0,52,0.00,,,0.00,18,WeatherCatV1.12B45,2013-01-23 12:36:00,
2013-01-23 07:41:00,7.8,-5.7,29.84,NNW,331,0.0,1.0,53,0.00,,,0.00,19,WeatherCatV1.12B45,2013-01-23 12:41:00,
2013-01-23 07:46:00,7.8,-5.7,29.84,NNW,330,0.0,3.0,53,0.00,,,0.00,26,WeatherCatV1.12B45,2013-01-23 12:46:00,
2013-01-23 07:51:00,7.9,-5.6,29.84,WNW,286,0.0,2.0,53,0.00,,,0.00,42,WeatherCatV1.12B45,2013-01-23 12:51:00,
2013-01-23 07:56:00,8.1,-5.1,29.84,NW,311,0.0,2.0,54,0.00,,,0.00,74,WeatherCatV1.12B45,2013-01-23 12:56:00,
2013-01-23 08:01:00,8.3,-4.9,29.84,SSW,200,1.0,1.0,54,0.00,,,0.00,58,WeatherCatV1.12B45,2013-01-23 13:01:00,
2013-01-23 08:06:00,8.6,-4.2,29.84,NNW,329,1.0,3.0,55,0.00,,,0.00,93,WeatherCatV1.12B45,2013-01-23 13:06:00,
2013-01-23 08:11:00,8.9,-4.3,29.84,NW,310,1.0,4.0,54,0.00,,,0.00,77,WeatherCatV1.12B45,2013-01-23 13:11:00,
2013-01-23 08:16:00,9.1,-4.9,29.84,NNW,333,0.0,4.0,52,0.00,,,0.00,104,WeatherCatV1.12B45,2013-01-23 13:16:00,
2013-01-23 08:21:00,9.2,-5.2,29.84,WNW,299,1.0,3.0,51,0.00,,,0.00,214,WeatherCatV1.12B45,2013-01-23 13:21:00,
2013-01-23 08:26:00,9.5,-5.3,29.84,NNW,348,0.0,3.0,50,0.00,,,0.00,174,WeatherCatV1.12B45,2013-01-23 13:26:00,
2013-01-23 08:31:00,9.9,-5.0,29.85,SSW,210,0.0,4.0,50,0.00,,,0.00,183,WeatherCatV1.12B45,2013-01-23 13:31:00,
2013-01-23 08:36:00,10.3,-5.0,29.84,NNW,342,3.0,6.0,49,0.00,,,0.00,220,WeatherCatV1.12B45,2013-01-23 13:36:00,
2013-01-23 08:41:00,10.6,-5.2,29.84,WNW,302,0.0,2.0,48,0.00,,,0.00,206,WeatherCatV1.12B45,2013-01-23 13:41:00,
2013-01-23 08:46:00,10.8,-5.0,29.84,West,275,2.0,6.0,48,0.00,,,0.00,192,WeatherCatV1.12B45,2013-01-23 13:46:00,
2013-01-23 08:51:00,10.9,-5.3,29.84,NW,307,1.0,5.0,47,0.00,,,0.00,209,WeatherCatV1.12B45,2013-01-23 13:51:00,
2013-01-23 08:56:00,11.0,-5.7,29.85,NW,315,0.0,4.0,46,0.00,,,0.00,183,WeatherCatV1.12B45,2013-01-23 13:56:00,
2013-01-23 09:01:00,11.0,-5.7,29.84,West,279,0.0,5.0,46,0.00,,,0.00,258,WeatherCatV1.12B45,2013-01-23 14:01:00,
2013-01-23 09:06:00,11.3,-5.4,29.85,NNW,329,0.0,2.0,46,0.00,,,0.00,253,WeatherCatV1.12B45,2013-01-23 14:06:00,
2013-01-23 09:11:00,11.7,-5.0,29.85,NW,314,1.0,5.0,46,0.00,,,0.00,302,WeatherCatV1.12B45,2013-01-23 14:11:00,
2013-01-23 09:16:00,12.1,-5.1,29.85,NNW,333,2.0,3.0,45,0.00,,,0.00,320,WeatherCatV1.12B45,2013-01-23 14:16:00,
2013-01-23 09:21:00,12.3,-5.4,29.85,NNW,327,0.0,4.0,44,0.00,,,0.00,388,WeatherCatV1.12B45,2013-01-23 14:21:00,
2013-01-23 09:26:00,12.5,-5.7,29.85,SE,138,0.0,5.0,43,0.00,,,0.00,401,WeatherCatV1.12B45,2013-01-23 14:26:00,
2013-01-23 09:31:00,12.8,-4.9,29.85,NW,321,1.0,4.0,44,0.00,,,0.00,411,WeatherCatV1.12B45,2013-01-23 14:31:00,
2013-01-23 09:36:00,13.3,-4.5,29.85,WSW,254,2.0,7.0,44,0.00,,,0.00,422,WeatherCatV1.12B45,2013-01-23 14:36:00,
2013-01-23 09:41:00,13.4,-4.9,29.85,NNW,348,0.0,5.0,43,0.00,,,0.00,434,WeatherCatV1.12B45,2013-01-23 14:41:00,
2013-01-23 09:46:00,13.5,-5.3,29.85,NNW,330,4.0,7.0,42,0.00,,,0.00,441,WeatherCatV1.12B45,2013-01-23 14:46:00,
2013-01-23 09:51:00,13.7,-5.1,29.85,SE,143,2.0,7.0,42,0.00,,,0.00,450,WeatherCatV1.12B45,2013-01-23 14:51:00,
2013-01-23 09:56:00,13.8,-5.5,29.85,NE,40,1.0,5.0,41,0.00,,,0.00,461,WeatherCatV1.12B45,2013-01-23 14:56:00,
2013-01-23 10:01:00,13.9,-5.4,29.85,West,271,3.0,13.0,41,0.00,,,0.00,468,WeatherCatV1.12B45,2013-01-23 15:01:00,
2013-01-23 10:06:00,14.2,-5.1,29.85,WNW,295,2.0,5.0,41,0.00,,,0.00,476,WeatherCatV1.12B45,2013-01-23 15:06:00,
2013-01-23 10:11:00,14.4,-5.0,29.84,NNW,328,2.0,13.0,41,0.00,,,0.00,483,WeatherCatV1.12B45,2013-01-23 15:11:00,
2013-01-23 10:16:00,14.6,-4.8,29.84,NNW,331,2.0,5.0,41,0.00,,,0.00,490,WeatherCatV1.12B45,2013-01-23 15:16:00,
2013-01-23 10:21:00,14.7,-4.2,29.85,SW,234,1.0,5.0,42,0.00,,,0.00,497,WeatherCatV1.12B45,2013-01-23 15:21:00,
2013-01-23 10:26:00,15.0,-4.4,29.84,NNW,344,0.0,6.0,41,0.00,,,0.00,504,WeatherCatV1.12B45,2013-01-23 15:26:00,
2013-01-23 10:31:00,15.1,-4.3,29.84,NW,323,0.0,2.0,41,0.00,,,0.00,512,WeatherCatV1.12B45,2013-01-23 15:31:00,
2013-01-23 10:36:00,15.3,-4.1,29.84,NW,304,5.0,5.0,41,0.00,,,0.00,515,WeatherCatV1.12B45,2013-01-23 15:36:00,
2013-01-23 10:41:00,15.2,-4.7,29.84,WSW,253,1.0,7.0,40,0.00,,,0.00,524,WeatherCatV1.12B45,2013-01-23 15:41:00,
2013-01-23 10:46:00,15.3,-4.6,29.83,West,276,3.0,10.0,40,0.00,,,0.00,529,WeatherCatV1.12B45,2013-01-23 15:46:00,
2013-01-23 10:51:00,15.4,-4.6,29.83,NNW,328,2.0,5.0,40,0.00,,,0.00,534,WeatherCatV1.12B45,2013-01-23 15:51:00,
2013-01-23 10:56:00,15.4,-4.6,29.83,SSE,161,0.0,11.0,40,0.00,,,0.00,536,WeatherCatV1.12B45,2013-01-23 15:56:00,
2013-01-23 11:01:00,15.7,-4.3,29.83,North,5,0.0,7.0,40,0.00,,,0.00,540,WeatherCatV1.12B45,2013-01-23 16:01:00,
2013-01-23 11:06:00,16.0,-4.0,29.83,NNW,338,3.0,5.0,40,0.00,,,0.00,545,WeatherCatV1.12B45,2013-01-23 16:06:00,
2013-01-23 11:11:00,16.2,-4.4,29.82,NW,312,0.0,3.0,39,0.00,,,0.00,478,WeatherCatV1.12B45,2013-01-23 16:11:00,
2013-01-23 11:16:00,16.2,-4.4,29.82,NW,314,1.0,7.0,39,0.00,,,0.00,441,WeatherCatV1.12B45,2013-01-23 16:16:00,
2013-01-23 11:21:00,16.4,-4.2,29.82,ENE,59,1.0,4.0,39,0.00,,,0.00,533,WeatherCatV1.12B45,2013-01-23 16:21:00,
2013-01-23 11:26:00,16.4,-4.7,29.82,WNW,284,2.0,7.0,38,0.00,,,0.00,545,WeatherCatV1.12B45,2013-01-23 16:26:00,
2013-01-23 11:31:00,16.5,-4.1,29.82,WNW,290,2.0,2.0,39,0.00,,,0.00,445,WeatherCatV1.12B45,2013-01-23 16:31:00,
2013-01-23 11:36:00,16.5,-4.6,29.82,SW,220,0.0,3.0,38,0.00,,,0.00,555,WeatherCatV1.12B45,2013-01-23 16:36:00,
2013-01-23 11:41:00,16.5,-4.6,29.81,NW,314,0.0,5.0,38,0.00,,,0.00,555,WeatherCatV1.12B45,2013-01-23 16:41:00,
2013-01-23 11:46:00,16.5,-4.6,29.81,West,277,0.0,3.0,38,0.00,,,0.00,557,WeatherCatV1.12B45,2013-01-23 16:46:00,
2013-01-23 11:51:00,16.5,-4.1,29.81,SW,232,0.0,7.0,39,0.00,,,0.00,557,WeatherCatV1.12B45,2013-01-23 16:51:00,
2013-01-23 11:56:00,16.3,-4.8,29.81,WNW,290,1.0,7.0,38,0.00,,,0.00,436,WeatherCatV1.12B45,2013-01-23 16:56:00,
2013-01-23 12:01:00,16.2,-4.9,29.80,NW,307,0.0,6.0,38,0.00,,,0.00,550,WeatherCatV1.12B45,2013-01-23 17:01:00,
2013-01-23 12:06:00,16.1,-5.0,29.80,NW,321,0.0,4.0,38,0.00,,,0.00,213,WeatherCatV1.12B45,2013-01-23 17:06:00,
2013-01-23 12:11:00,16.1,-5.0,29.80,West,271,0.0,7.0,38,0.00,,,0.00,118,WeatherCatV1.12B45,2013-01-23 17:11:00,
2013-01-23 12:16:00,16.0,-5.1,29.80,North,355,3.0,10.0,38,0.00,,,0.00,422,WeatherCatV1.12B45,2013-01-23 17:16:00,
2013-01-23 12:21:00,15.8,-5.3,29.80,North,350,1.0,2.0,38,0.00,,,0.00,67,WeatherCatV1.12B45,2013-01-23 17:21:00,
2013-01-23 12:26:00,15.6,-5.4,29.79,NW,313,0.0,6.0,38,0.00,,,0.00,163,WeatherCatV1.12B45,2013-01-23 17:26:00,
2013-01-23 12:31:00,15.6,-6.0,29.79,SW,223,1.0,7.0,37,0.00,,,0.00,538,WeatherCatV1.12B45,2013-01-23 17:31:00,
2013-01-23 12:36:00,15.8,-4.7,29.78,NW,314,0.0,5.0,39,0.00,,,0.00,533,WeatherCatV1.12B45,2013-01-23 17:36:00,
2013-01-23 12:41:00,16.2,-4.9,29.78,WNW,288,0.0,3.0,38,0.00,,,0.00,445,WeatherCatV1.12B45,2013-01-23 17:41:00,
2013-01-23 12:46:00,16.6,-5.1,29.78,South,175,1.0,1.0,37,0.00,,,0.00,524,WeatherCatV1.12B45,2013-01-23 17:46:00,
2013-01-23 12:51:00,16.8,-4.4,29.78,NW,325,2.0,6.0,38,0.00,,,0.00,519,WeatherCatV1.12B45,2013-01-23 17:51:00,
2013-01-23 12:56:00,17.0,-4.7,29.78,SSW,194,2.0,4.0,37,0.00,,,0.00,512,WeatherCatV1.12B45,2013-01-23 17:56:00,
2013-01-23 13:01:00,16.9,-5.4,29.78,WNW,299,2.0,9.0,36,0.00,,,0.00,499,WeatherCatV1.12B45,2013-01-23 18:01:00,
2013-01-23 13:06:00,16.9,-4.8,29.78,NW,311,0.0,12.0,37,0.00,,,0.00,492,WeatherCatV1.12B45,2013-01-23 18:06:00,
2013-01-23 13:11:00,17.0,-4.7,29.78,SW,234,1.0,6.0,37,0.00,,,0.00,487,WeatherCatV1.12B45,2013-01-23 18:11:00,
2013-01-23 13:16:00,17.1,-4.6,29.77,WNW,300,1.0,2.0,37,0.00,,,0.00,475,WeatherCatV1.12B45,2013-01-23 18:16:00,
2013-01-23 13:21:00,17.2,-4.5,29.77,NW,322,0.0,5.0,37,0.00,,,0.00,466,WeatherCatV1.12B45,2013-01-23 18:21:00,
2013-01-23 13:26:00,17.5,-3.7,29.78,NNW,337,3.0,3.0,38,0.00,,,0.00,459,WeatherCatV1.12B45,2013-01-23 18:26:00,
2013-01-23 13:31:00,17.6,-3.6,29.78,SE,141,2.0,4.0,38,0.00,,,0.00,446,WeatherCatV1.12B45,2013-01-23 18:31:00,
2013-01-23 13:36:00,17.6,-4.2,29.77,NW,317,4.0,4.0,37,0.00,,,0.00,438,WeatherCatV1.12B45,2013-01-23 18:36:00,
2013-01-23 13:41:00,17.6,-3.6,29.78,North,350,1.0,7.0,38,0.00,,,0.00,429,WeatherCatV1.12B45,2013-01-23 18:41:00,
2013-01-23 13:46:00,17.5,-4.8,29.77,West,281,1.0,6.0,36,0.00,,,0.00,417,WeatherCatV1.12B45,2013-01-23 18:46:00,
2013-01-23 13:51:00,17.6,-4.8,29.78,WSW,245,1.0,5.0,36,0.00,,,0.00,406,WeatherCatV1.12B45,2013-01-23 18:51:00,
2013-01-23 13:56:00,17.5,-4.3,29.78,NNW,348,3.0,5.0,37,0.00,,,0.00,397,WeatherCatV1.12B45,2013-01-23 18:56:00,
2013-01-23 14:01:00,17.4,-4.4,29.77,NW,323,1.0,2.0,37,0.00,,,0.00,387,WeatherCatV1.12B45,2013-01-23 19:01:00,
2013-01-23 14:06:00,17.3,-4.5,29.78,NNW,342,1.0,4.0,37,0.00,,,0.00,378,WeatherCatV1.12B45,2013-01-23 19:06:00,
2013-01-23 14:11:00,17.2,-5.1,29.78,SW,233,0.0,5.0,36,0.00,,,0.00,366,WeatherCatV1.12B45,2013-01-23 19:11:00,
2013-01-23 14:16:00,17.2,-5.1,29.78,WNW,302,2.0,3.0,36,0.00,,,0.00,40,WeatherCatV1.12B45,2013-01-23 19:16:00,
2013-01-23 14:21:00,17.1,-5.2,29.78,West,268,0.0,3.0,36,0.00,,,0.00,39,WeatherCatV1.12B45,2013-01-23 19:21:00,
2013-01-23 14:26:00,17.1,-5.2,29.77,SSE,156,1.0,3.0,36,0.00,,,0.00,39,WeatherCatV1.12B45,2013-01-23 19:26:00,
2013-01-23 14:31:00,17.1,-5.2,29.78,North,5,0.0,2.0,36,0.00,,,0.00,37,WeatherCatV1.12B45,2013-01-23 19:31:00,
2013-01-23 14:36:00,17.0,-5.9,29.78,SW,215,0.0,3.0,35,0.00,,,0.00,37,WeatherCatV1.12B45,2013-01-23 19:36:00,
2013-01-23 14:41:00,16.9,-5.4,29.78,WNW,296,1.0,3.0,36,0.00,,,0.00,35,WeatherCatV1.12B45,2013-01-23 19:41:00,
2013-01-23 14:46:00,16.7,-5.6,29.78,West,259,0.0,3.0,36,0.00,,,0.00,33,WeatherCatV1.12B45,2013-01-23 19:46:00,
2013-01-23 14:51:00,16.6,-5.7,29.78,WSW,256,0.0,6.0,36,0.00,,,0.00,33,WeatherCatV1.12B45,2013-01-23 19:51:00,
2013-01-23 14:56:00,16.4,-6.4,29.78,SE,144,0.0,4.0,35,0.00,,,0.00,33,WeatherCatV1.12B45,2013-01-23 19:56:00,
2013-01-23 15:01:00,16.3,-5.9,29.78,NE,34,1.0,5.0,36,0.00,,,0.00,32,WeatherCatV1.12B45,2013-01-23 20:01:00,
2013-01-23 15:06:00,16.1,-6.1,29.78,NW,309,0.0,4.0,36,0.00,,,0.00,32,WeatherCatV1.12B45,2013-01-23 20:06:00,
2013-01-23 15:11:00,16.0,-5.6,29.78,NW,315,0.0,3.0,37,0.00,,,0.00,30,WeatherCatV1.12B45,2013-01-23 20:11:00,
2013-01-23 15:16:00,15.8,-6.4,29.78,NW,309,1.0,5.0,36,0.00,,,0.00,30,WeatherCatV1.12B45,2013-01-23 20:16:00,
2013-01-23 15:21:00,15.7,-5.9,29.78,NNW,337,3.0,3.0,37,0.00,,,0.00,28,WeatherCatV1.12B45,2013-01-23 20:21:00,
2013-01-23 15:26:00,15.6,-6.0,29.78,NE,42,1.0,4.0,37,0.00,,,0.00,28,WeatherCatV1.12B45,2013-01-23 20:26:00,
2013-01-23 15:31:00,15.4,-5.6,29.78,NE,46,1.0,2.0,38,0.00,,,0.00,26,WeatherCatV1.12B45,2013-01-23 20:31:00,
2013-01-23 15:36:00,15.3,-6.3,29.78,West,269,2.0,6.0,37,0.00,,,0.00,25,WeatherCatV1.12B45,2013-01-23 20:36:00,
2013-01-23 15:41:00,15.0,-6.0,29.78,WNW,300,2.0,5.0,38,0.00,,,0.00,23,WeatherCatV1.12B45,2013-01-23 20:41:00,
2013-01-23 15:46:00,14.9,-6.1,29.78,NNW,348,0.0,3.0,38,0.00,,,0.00,23,WeatherCatV1.12B45,2013-01-23 20:46:00,
2013-01-23 15:51:00,14.8,-6.2,29.79,West,273,1.0,4.0,38,0.00,,,0.00,21,WeatherCatV1.12B45,2013-01-23 20:51:00,
2013-01-23 15:56:00,14.6,-6.3,29.79,NW,323,0.0,3.0,38,0.00,,,0.00,21,WeatherCatV1.12B45,2013-01-23 20:56:00,
2013-01-23 16:01:00,14.4,-6.5,29.79,WNW,291,0.0,2.0,38,0.00,,,0.00,19,WeatherCatV1.12B45,2013-01-23 21:01:00,
2013-01-23 16:06:00,14.3,-6.6,29.79,NW,320,4.0,4.0,38,0.00,,,0.00,18,WeatherCatV1.12B45,2013-01-23 21:06:00,
2013-01-23 16:11:00,14.1,-6.8,29.79,SE,144,0.0,3.0,38,0.00,,,0.00,16,WeatherCatV1.12B45,2013-01-23 21:11:00,
2013-01-23 16:16:00,13.9,-6.4,29.80,WSW,253,0.0,6.0,39,0.00,,,0.00,14,WeatherCatV1.12B45,2013-01-23 21:16:00,
2013-01-23 16:21:00,13.7,-6.6,29.80,NW,323,0.0,4.0,39,0.00,,,0.00,12,WeatherCatV1.12B45,2013-01-23 21:21:00,
2013-01-23 16:26:00,13.4,-6.9,29.80,SW,227,0.0,3.0,39,0.00,,,0.00,9,WeatherCatV1.12B45,2013-01-23 21:26:00,
2013-01-23 16:31:00,13.2,-7.1,29.80,ESE,111,0.0,2.0,39,0.00,,,0.00,7,WeatherCatV1.12B45,2013-01-23 21:31:00,
2013-01-23 16:36:00,13.0,-6.7,29.80,West,261,0.0,5.0,40,0.00,,,0.00,5,WeatherCatV1.12B45,2013-01-23 21:36:00,
2013-01-23 16:41:00,12.8,-7.4,29.80,North,350,0.0,2.0,39,0.00,,,0.00,5,WeatherCatV1.12B45,2013-01-23 21:41:00,
2013-01-23 16:46:00,12.7,-7.5,29.80,NW,326,0.0,3.0,39,0.00,,,0.00,0,WeatherCatV1.12B45,2013-01-23 21:46:00,
2013-01-23 16:51:00,12.5,-7.2,29.80,NW,313,0.0,2.0,40,0.00,,,0.00,0,WeatherCatV1.12B45,2013-01-23 21:51:00,
2013-01-23 16:56:00,12.4,-6.8,29.80,West,261,0.0,1.0,41,0.00,,,0.00,0,WeatherCatV1.12B45,2013-01-23 21:56:00,
2013-01-23 17:01:00,12.3,-7.4,29.81,NW,310,0.0,2.0,40,0.00,,,0.00,0,WeatherCatV1.12B45,2013-01-23 22:01:00,
2013-01-23 17:06:00,12.2,-7.5,29.81,NW,321,0.0,1.0,40,0.00,,,0.00,0,WeatherCatV1.12B45,2013-01-23 22:06:00,
2013-01-23 17:11:00,12.1,-7.0,29.81,NW,320,0.0,0.0,41,0.00,,,0.00,0,WeatherCatV1.12B45,2013-01-23 22:11:00,
2013-01-23 17:16:00,12.0,-7.1,29.82,NW,320,0.0,1.0,41,0.00,,,0.00,0,WeatherCatV1.12B45,2013-01-23 22:16:00,
2013-01-23 17:21:00,11.9,-7.2,29.82,NW,320,0.0,0.0,41,0.00,,,0.00,0,WeatherCatV1.12B45,2013-01-23 22:21:00,
2013-01-23 17:26:00,11.8,-7.3,29.82,NW,315,0.0,1.0,41,0.00,,,0.00,0,WeatherCatV1.12B45,2013-01-23 22:26:00,
2013-01-23 17:31:00,11.7,-7.4,29.82,West,276,1.0,1.0,41,0.00,,,0.00,0,WeatherCatV1.12B45,2013-01-23 22:31:00,
2013-01-23 17:36:00,11.5,-7.6,29.82,NW,304,0.0,1.0,41,0.00,,,0.00,0,WeatherCatV1.12B45,2013-01-23 22:36:00,
2013-01-23 17:41:00,11.5,-7.6,29.82,NW,306,0.0,2.0,41,0.00,,,0.00,0,WeatherCatV1.12B45,2013-01-23 22:41:00,
2013-01-23 17:46:00,11.3,-7.3,29.82,NW,306,0.0,2.0,42,0.00,,,0.00,0,WeatherCatV1.12B45,2013-01-23 22:46:00,
2013-01-23 17:51:00,11.3,-7.3,29.82,WSW,252,0.0,2.0,42,0.00,,,0.00,0,WeatherCatV1.12B45,2013-01-23 22:51:00,
2013-01-23 17:56:00,11.2,-7.4,29.83,West,272,1.0,2.0,42,0.00,,,0.00,0,WeatherCatV1.12B45,2013-01-23 22:56:00,
2013-01-23 18:01:00,11.2,-7.4,29.83,WSW,241,0.0,3.0,42,0.00,,,0.00,0,WeatherCatV1.12B45,2013-01-23 23:01:00,
2013-01-23 18:06:00,11.0,-7.1,29.83,WSW,242,0.0,0.0,43,0.00,,,0.00,0,WeatherCatV1.12B45,2013-01-23 23:06:00,
2013-01-23 18:11:00,11.0,-7.1,29.83,WSW,242,0.0,1.0,43,0.00,,,0.00,0,WeatherCatV1.12B45,2013-01-23 23:11:00,
2013-01-23 18:16:00,10.9,-7.2,29.83,NNW,327,0.0,2.0,43,0.00,,,0.00,0,WeatherCatV1.12B45,2013-01-23 23:16:00,
2013-01-23 18:21:00,10.8,-6.8,29.83,West,261,0.0,1.0,44,0.00,,,0.00,0,WeatherCatV1.12B45,2013-01-23 23:21:00,
2013-01-23 18:26:00,10.8,-7.2,29.83,NW,325,0.0,2.0,43,0.00,,,0.00,0,WeatherCatV1.12B45,2013-01-23 23:26:00,
2013-01-23 18:31:00,10.7,-7.3,29.83,WNW,295,1.0,1.0,43,0.00,,,0.00,0,WeatherCatV1.12B45,2013-01-23 23:31:00,
2013-01-23 18:36:00,10.7,-7.3,29.83,NW,311,0.0,1.0,43,0.00,,,0.00,0,WeatherCatV1.12B45,2013-01-23 23:36:00,
2013-01-23 18:41:00,10.6,-7.0,29.83,NW,311,0.0,1.0,44,0.00,,,0.00,0,WeatherCatV1.12B45,2013-01-23 23:41:00,
2013-01-23 18:46:00,10.5,-7.1,29.83,NW,310,0.0,1.0,44,0.00,,,0.00,0,WeatherCatV1.12B45,2013-01-23 23:46:00,
2013-01-23 18:51:00,10.4,-7.1,29.83,WNW,291,0.0,3.0,44,0.00,,,0.00,0,WeatherCatV1.12B45,2013-01-23 23:51:00,
2013-01-23 18:56:00,10.4,-7.1,29.83,West,281,0.0,3.0,44,0.00,,,0.00,0,WeatherCatV1.12B45,2013-01-23 23:56:00,
2013-01-23 19:01:00,10.3,-7.2,29.83,NW,318,0.0,1.0,44,0.00,,,0.00,0,WeatherCatV1.12B45,2013-01-24 00:01:00,
2013-01-23 19:06:00,10.2,-7.3,29.84,NW,308,0.0,4.0,44,0.00,,,0.00,0,WeatherCatV1.12B45,2013-01-24 00:06:00,
2013-01-23 19:11:00,10.1,-7.0,29.84,NW,308,1.0,1.0,45,0.00,,,0.00,0,WeatherCatV1.12B45,2013-01-24 00:11:00,
2013-01-23 19:16:00,10.1,-7.0,29.84,NW,307,0.0,0.0,45,0.00,,,0.00,0,WeatherCatV1.12B45,2013-01-24 00:16:00,
2013-01-23 19:21:00,10.0,-7.1,29.84,NW,307,0.0,1.0,45,0.00,,,0.00,0,WeatherCatV1.12B45,2013-01-24 00:21:00,
2013-01-23 19:26:00,9.9,-6.7,29.84,NW,308,0.0,1.0,46,0.00,,,0.00,0,WeatherCatV1.12B45,2013-01-24 00:26:00,
2013-01-23 19:31:00,9.9,-6.7,29.84,NW,309,2.0,2.0,46,0.00,,,0.00,0,WeatherCatV1.12B45,2013-01-24 00:31:00,
2013-01-23 19:36:00,9.9,-6.7,29.84,NW,309,0.0,1.0,46,0.00,,,0.00,0,WeatherCatV1.12B45,2013-01-24 00:36:00,
2013-01-23 19:41:00,9.8,-6.8,29.84,NW,309,0.0,0.0,46,0.00,,,0.00,0,WeatherCatV1.12B45,2013-01-24 00:41:00,
2013-01-23 19:46:00,9.8,-6.3,29.84,NW,309,0.0,1.0,47,0.00,,,0.00,0,WeatherCatV1.12B45,2013-01-24 00:46:00,
2013-01-23 19:51:00,9.7,-6.4,29.84,NW,309,1.0,1.0,47,0.00,,,0.00,0,WeatherCatV1.12B45,2013-01-24 00:51:00,
2013-01-23 19:56:00,9.6,-6.1,29.84,NW,309,1.0,1.0,48,0.00,,,0.00,0,WeatherCatV1.12B45,2013-01-24 00:56:00,
2013-01-23 20:01:00,9.5,-6.2,29.84,NW,309,0.0,2.0,48,0.00,,,0.00,0,WeatherCatV1.12B45,2013-01-24 01:01:00,
2013-01-23 20:06:00,9.4,-6.3,29.84,NW,309,0.0,1.0,48,0.00,,,0.00,0,WeatherCatV1.12B45,2013-01-24 01:06:00,
2013-01-23 20:11:00,9.3,-6.4,29.84,NW,309,0.0,0.0,48,0.00,,,0.00,0,WeatherCatV1.12B45,2013-01-24 01:11:00,
2013-01-23 20:16:00,9.2,-6.5,29.84,NW,308,0.0,1.0,48,0.00,,,0.00,0,WeatherCatV1.12B45,2013-01-24 01:16:00,
2013-01-23 20:21:00,9.1,-6.6,29.84,NW,313,2.0,2.0,48,0.00,,,0.00,0,WeatherCatV1.12B45,2013-01-24 01:21:00,
2013-01-23 20:26:00,9.1,-6.6,29.84,NW,314,0.0,1.0,48,0.00,,,0.00,0,WeatherCatV1.12B45,2013-01-24 01:26:00,
2013-01-23 20:31:00,9.0,-6.2,29.84,NW,314,0.0,0.0,49,0.00,,,0.00,0,WeatherCatV1.12B45,2013-01-24 01:31:00,
2013-01-23 20:36:00,9.0,-6.7,29.84,NW,309,0.0,0.0,48,0.00,,,0.00,0,WeatherCatV1.12B45,2013-01-24 01:36:00,
2013-01-23 20:41:00,8.9,-6.3,29.85,NW,309,0.0,0.0,49,0.00,,,0.00,0,WeatherCatV1.12B45,2013-01-24 01:41:00,
2013-01-23 20:46:00,8.9,-6.3,29.85,NW,309,0.0,0.0,49,0.00,,,0.00,0,WeatherCatV1.12B45,2013-01-24 01:46:00,
2013-01-23 20:51:00,8.8,-6.4,29.85,WNW,291,0.0,1.0,49,0.00,,,0.00,0,WeatherCatV1.12B45,2013-01-24 01:51:00,
2013-01-23 20:56:00,8.7,-6.1,29.85,NNW,341,2.0,2.0,50,0.00,,,0.00,0,WeatherCatV1.12B45,2013-01-24 01:56:00,
2013-01-23 21:01:00,8.6,-6.2,29.85,WNW,301,0.0,2.0,50,0.00,,,0.00,0,WeatherCatV1.12B45,2013-01-24 02:01:00,
2013-01-23 21:06:00,8.6,-6.6,29.85,West,280,1.0,1.0,49,0.00,,,0.00,0,WeatherCatV1.12B45,2013-01-24 02:06:00,
2013-01-23 21:11:00,8.5,-6.7,29.85,West,263,0.0,3.0,49,0.00,,,0.00,0,WeatherCatV1.12B45,2013-01-24 02:11:00,
2013-01-23 21:16:00,8.4,-6.4,29.85,WNW,287,0.0,1.0,50,0.00,,,0.00,0,WeatherCatV1.12B45,2013-01-24 02:16:00,
2013-01-23 21:21:00,8.3,-6.9,29.85,NNW,327,0.0,1.0,49,0.00,,,0.00,0,WeatherCatV1.12B45,2013-01-24 02:21:00,
2013-01-23 21:26:00,8.2,-6.6,29.85,ESE,102,1.0,3.0,50,0.00,,,0.00,0,WeatherCatV1.12B45,2013-01-24 02:26:00,
2013-01-23 21:31:00,8.2,-6.6,29.85,WNW,291,0.0,1.0,50,0.00,,,0.00,0,WeatherCatV1.12B45,2013-01-24 02:31:00,
2013-01-23 21:36:00,8.1,-6.6,29.85,West,267,0.0,1.0,50,0.00,,,0.00,0,WeatherCatV1.12B45,2013-01-24 02:36:00,
2013-01-23 21:41:00,8.0,-6.7,29.85,WNW,292,0.0,2.0,50,0.00,,,0.00,0,WeatherCatV1.12B45,2013-01-24 02:41:00,
2013-01-23 21:46:00,8.0,-6.7,29.85,WNW,288,0.0,1.0,50,0.00,,,0.00,0,WeatherCatV1.12B45,2013-01-24 02:46:00,
2013-01-23 21:51:00,7.9,-7.2,29.85,WNW,288,1.0,3.0,49,0.00,,,0.00,0,WeatherCatV1.12B45,2013-01-24 02:51:00,
2013-01-23 21:56:00,7.8,-6.9,29.84,West,265,0.0,0.0,50,0.00,,,0.00,0,WeatherCatV1.12B45,2013-01-24 02:56:00,
2013-01-23 22:01:00,7.7,-7.0,29.84,West,265,0.0,1.0,50,0.00,,,0.00,0,WeatherCatV1.12B45,2013-01-24 03:01:00,
2013-01-23 22:06:00,7.6,-7.1,29.85,NW,311,0.0,3.0,50,0.00,,,0.00,0,WeatherCatV1.12B45,2013-01-24 03:06:00,
2013-01-23 22:11:00,7.6,-6.7,29.84,NW,313,0.0,1.0,51,0.00,,,0.00,0,WeatherCatV1.12B45,2013-01-24 03:11:00,
2013-01-23 22:16:00,7.5,-6.8,29.84,NW,325,0.0,3.0,51,0.00,,,0.00,0,WeatherCatV1.12B45,2013-01-24 03:16:00,
2013-01-23 22:21:00,7.4,-6.9,29.84,NW,309,0.0,2.0,51,0.00,,,0.00,0,WeatherCatV1.12B45,2013-01-24 03:21:00,
2013-01-23 22:26:00,7.2,-7.1,29.84,NW,308,0.0,1.0,51,0.00,,,0.00,0,WeatherCatV1.12B45,2013-01-24 03:26:00,
2013-01-23 22:31:00,7.2,-7.1,29.84,NW,308,0.0,1.0,51,0.00,,,0.00,0,WeatherCatV1.12B45,2013-01-24 03:31:00,
2013-01-23 22:36:00,7.1,-6.8,29.84,NW,307,0.0,1.0,52,0.00,,,0.00,0,WeatherCatV1.12B45,2013-01-24 03:36:00,
2013-01-23 22:41:00,7.0,-6.9,29.84,NW,308,0.0,2.0,52,0.00,,,0.00,0,WeatherCatV1.12B45,2013-01-24 03:41:00,
2013-01-23 22:46:00,6.9,-7.0,29.84,West,261,0.0,0.0,52,0.00,,,0.00,0,WeatherCatV1.12B45,2013-01-24 03:46:00,
2013-01-23 22:51:00,6.9,-7.0,29.84,West,279,0.0,1.0,52,0.00,,,0.00,0,WeatherCatV1.12B45,2013-01-24 03:51:00,
2013-01-23 22:56:00,6.8,-7.1,29.84,WNW,295,0.0,1.0,52,0.00,,,0.00,0,WeatherCatV1.12B45,2013-01-24 03:56:00,
2013-01-23 23:01:00,6.7,-7.1,29.84,NW,316,0.0,2.0,52,0.00,,,0.00,0,WeatherCatV1.12B45,2013-01-24 04:01:00,
2013-01-23 23:06:00,6.6,-7.2,29.84,NW,316,0.0,2.0,52,0.00,,,0.00,0,WeatherCatV1.12B45,2013-01-24 04:06:00,
2013-01-23 23:11:00,6.5,-7.3,29.84,NW,320,0.0,1.0,52,0.00,,,0.00,0,WeatherCatV1.12B45,2013-01-24 04:11:00,
2013-01-23 23:16:00,6.4,-7.0,29.84,NW,316,0.0,1.0,53,0.00,,,0.00,0,WeatherCatV1.12B45,2013-01-24 04:16:00,
2013-01-23 23:21:00,6.4,-7.0,29.84,NW,315,0.0,2.0,53,0.00,,,0.00,0,WeatherCatV1.12B45,2013-01-24 04:21:00,
2013-01-23 23:26:00,6.3,-7.1,29.84,West,268,0.0,1.0,53,0.00,,,0.00,0,WeatherCatV1.12B45,2013-01-24 04:26:00,
2013-01-23 23:31:00,6.2,-7.2,29.84,SW,236,0.0,1.0,53,0.00,,,0.00,0,WeatherCatV1.12B45,2013-01-24 04:31:00,
2013-01-23 23:36:00,6.2,-7.2,29.84,NW,309,0.0,0.0,53,0.00,,,0.00,0,WeatherCatV1.12B45,2013-01-24 04:36:00,
2013-01-23 23:41:00,6.1,-7.3,29.84,NW,314,0.0,0.0,53,0.00,,,0.00,0,WeatherCatV1.12B45,2013-01-24 04:41:00,
2013-01-23 23:46:00,6.1,-6.9,29.84,NW,313,0.0,1.0,54,0.00,,,0.00,0,WeatherCatV1.12B45,2013-01-24 04:46:00,
2013-01-23 23:51:00,6.0,-6.7,29.84,SW,234,0.0,1.0,55,0.00,,,0.00,0,WeatherCatV1.12B45,2013-01-24 04:51:00,
2013-01-23 23:56:00,6.0,-7.0,29.83,WNW,286,0.0,1.0,54,0.00,,,0.00,0,WeatherCatV1.12B45,2013-01-24 04:56:00,